Location: Dunn (historical)
(35.2693°N, 90.5721°W)
Time: 02:57:30
(UTC+00:00)

IRS-1D - Pass Details

Date: 13 February 2026
Orbit: 736 x 811 km, 98.8° (Epoch: 6 March)

Event Time Altitude Azimuth Distance (km) Brightness Sun altitude
Rises 12:01:29 0° 360° (N) 3,290 6.7 -10.6°
Reaches altitude 10° 12:04:07 10° 349° (N) 2,345 5.8 -10.1°
Maximum altitude 12:08:26 28° 292° (WNW) 1,436 4.4 -9.2°
Drops below altitude 10° 12:12:39 10° 235° (SW) 2,292 5.6 -8.4°
Sets 12:15:12 0° 224° (SW) 3,202 6.4 -7.9°
